FW7989 Weather Reports


time (UTC)temp
F
wind
direction
speed
knots
gust
knots
rain 1hr
in
rain 24hr
in
rain mn
in
humidity
%
barometer
mb
20260503032603 51 0 0.0 0.0 0.00 0.79 0.00 94 1010.0
20260503032057 50 0 0.0 0.0 0.00 0.79 0.00 94 1010.0
20260503031600 50 0 0.0 0.0 0.00 0.79 0.00 94 1010.1
20260503031100 50 0 0.0 0.0 0.00 0.79 0.00 94 1010.1
20260503030600 50 0 0.0 0.0 0.00 0.79 0.00 94 1010.0
20260503025600 50 0 0.0 0.0 0.00 0.79 0.00 94 1010.1
20260503025101 50 0 0.0 0.0 0.00 0.79 0.00 94 1010.1
20260503024557 50 0 0.0 0.0 0.00 0.79 0.00 94 1010.0
20260503024100 49 0 0.0 0.0 0.00 0.79 0.00 94 1010.0
20260503023557 49 0 0.0 0.0 0.00 0.79 0.00 94 1010.2
20260503023110 49 0 0.0 0.0 0.00 0.79 0.00 94 1010.3
20260503022557 49 0 0.0 0.0 0.00 0.79 0.00 94 1010.3
20260503022100 49 0 0.0 0.0 0.00 0.79 0.00 94 1010.3
20260503021602 49 0 0.0 0.0 0.00 0.79 0.00 94 1010.4
20260503021057 49 0 0.0 0.0 0.00 0.79 0.00 94 1010.3
20260503020557 49 0 0.0 0.0 0.00 0.79 0.00 94 1010.3
20260503020104 49 0 0.0 0.0 0.00 0.79 0.00 94 1010.3
20260503015557 48 0 0.0 0.0 0.00 0.79 0.00 93 1010.3
20260503015101 48 0 0.0 0.0 0.00 0.79 0.00 93 1010.3
20260503014602 48 0 0.0 0.0 0.00 0.79 0.00 92 1010.3
20260503014100 48 0 0.0 0.0 0.00 0.79 0.00 92 1010.3
20260503013559 49 0 0.0 0.0 0.00 0.79 0.00 92 1010.4
20260503013101 49 0 0.0 0.0 0.00 0.79 0.00 93 1010.4
20260503012600 49 0 0.0 0.0 0.00 0.79 0.00 93 1010.4
20260503012056 49 0 0.0 0.0 0.00 0.79 0.00 92 1010.4
20260503011626 50 0 0.0 0.0 0.00 0.79 0.00 91 1010.5
20260503011057 50 0 0.0 0.0 0.00 0.79 0.00 92 1010.4
20260503010557 51 0 0.0 0.0 0.00 0.79 0.00 93 1010.5
20260503010058 51 0 0.0 0.0 0.00 0.79 0.00 94 1010.3
20260503005602 51 0 0.0 0.0 0.00 0.79 0.00 94 1010.4
20260503005058 51 0 0.0 0.0 0.00 0.79 0.00 94 1010.5
20260503004600 51 0 0.0 0.0 0.00 0.79 0.00 94 1010.6
20260503004100 50 0 0.0 0.0 0.00 0.79 0.00 94 1010.6
20260503003600 50 0 0.0 0.0 0.00 0.79 0.00 94 1010.7
20260503003108 50 0 0.0 0.0 0.00 0.79 0.00 93 1010.7
20260503002600 50 0 0.0 0.0 0.00 0.79 0.00 93 1010.8
20260503002058 50 0 0.0 0.0 0.00 0.79 0.00 93 1010.9
20260503001600 50 0 0.0 0.0 0.00 0.79 0.00 93 1010.9
20260503001100 50 0 0.0 0.0 0.00 0.79 0.00 92 1011.0
20260503000559 50 0 0.0 0.0 0.00 0.79 0.00 92 1011.0
20260503000105 50 0 0.0 0.0 0.00 0.79 0.00 93 1011.0
20260502235600 50 0 0.0 0.0 0.00 0.79 0.00 93 1011.0
20260502235059 50 0 0.0 0.0 0.00 0.79 0.00 92 1010.9
20260502234604 50 0 0.0 0.0 0.00 0.79 0.00 92 1010.9
20260502234057 50 0 0.0 0.0 0.00 0.79 0.00 92 1011.0
20260502233557 50 0 0.0 0.0 0.00 0.79 0.00 92 1011.0
20260502233100 50 0 0.0 0.0 0.00 0.79 0.00 91 1011.0
20260502232557 51 0 0.0 0.0 0.00 0.79 0.00 90 1010.8
20260502232103 51 0 0.0 0.0 0.00 0.79 0.00 90 1010.9
20260502231559 51 0 0.0 0.0 0.00 0.79 0.00 90 1010.7
20260502231100 52 0 0.0 0.0 0.00 0.78 0.00 90 1010.8
20260502230601 52 0 0.0 1.7 0.00 0.78 0.00 91 1011.1
20260502230101 52 0 0.0 1.7 0.00 0.78 0.00 92 1011.0
20260502225559 53 13 0.9 1.7 0.00 0.78 0.78 92 1011.0
20260502225059 53 303 0.0 1.7 0.00 0.78 0.78 92 1010.9
20260502224604 53 0 0.0 1.7 0.00 0.78 0.78 92 1011.1
20260502224058 53 303 0.9 1.7 0.00 0.78 0.78 92 1011.1
20260502223558 53 303 0.0 1.7 0.00 0.78 0.78 92 1011.3
20260502223058 53 0 0.0 0.9 0.00 0.78 0.78 92 1011.2
20260502222556 53 0 0.0 2.6 0.00 0.78 0.78 92 1011.3
20260502222100 53 0 0.0 2.6 0.00 0.78 0.78 92 1011.3
20260502221613 53 303 0.9 2.6 0.00 0.78 0.78 92 1011.3
20260502221150 53 215 0.9 4.3 0.00 0.78 0.78 92 1011.4
20260502220603 53 0 0.0 4.3 0.00 0.78 0.78 92 1011.3
20260502220110 53 69 0.0 4.3 0.00 0.78 0.78 92 1011.3
20260502215601 53 61 0.9 3.5 0.00 0.78 0.78 92 1011.3
20260502215059 53 92 0.9 3.5 0.00 0.78 0.78 92 1011.3
20260502214557 53 98 0.9 3.5 0.00 0.78 0.78 92 1011.2
20260502214057 53 65 1.7 3.5 0.00 0.78 0.78 92 1011.3
20260502213558 53 65 0.9 2.6 0.00 0.78 0.78 92 1011.3
20260502213057 53 77 0.0 2.6 0.00 0.78 0.78 92 1011.4
20260502212557 54 0 0.0 2.6 0.00 0.78 0.78 92 1011.2
20260502212058 54 352 0.0 3.5 0.00 0.78 0.78 92 1011.1
20260502211600 54 0 0.0 3.5 0.00 0.78 0.78 93 1011.3
20260502211058 54 51 0.9 4.3 0.00 0.78 0.78 93 1011.3
20260502210558 54 0 0.9 4.3 0.00 0.77 0.77 93 1011.2
20260502210129 54 5 1.7 4.3 0.00 0.77 0.77 92 1011.2
20260502205600 54 351 0.9 4.3 0.00 0.77 0.77 92 1011.2
20260502205058 54 333 0.9 4.3 0.00 0.77 0.77 92 1011.2
20260502204600 54 352 2.6 4.3 0.00 0.77 0.77 92 1011.3
20260502204057 54 360 1.7 4.3 0.00 0.77 0.77 92 1011.2
20260502203558 54 304 1.7 4.3 0.00 0.77 0.77 92 1011.4
20260502203058 54 347 1.7 3.5 0.00 0.77 0.77 92 1011.3
20260502202557 54 14 0.9 3.5 0.00 0.77 0.77 92 1011.2
20260502202102 54 5 1.7 3.5 0.00 0.77 0.77 92 1011.3
20260502201558 54 352 0.9 2.6 0.00 0.77 0.77 92 1011.5
20260502201059 54 342 0.0 1.7 0.00 0.77 0.77 92 1011.5
20260502200559 54 0 0.0 1.7 0.00 0.77 0.77 92 1011.5
20260502200126 54 0 0.0 1.7 0.00 0.77 0.77 92 1011.5
20260502195559 54 0 0.0 1.7 0.00 0.77 0.77 92 1011.6
20260502195058 54 34 0.0 1.7 0.00 0.77 0.77 92 1011.5
20260502194603 54 34 0.0 1.7 0.00 0.77 0.77 92 1011.5
20260502194058 54 0 0.0 1.7 0.00 0.77 0.77 92 1011.6
20260502193558 54 34 0.0 1.7 0.01 0.77 0.77 92 1011.5
20260502193059 54 0 0.0 0.9 0.02 0.77 0.77 92 1011.7
20260502192559 54 0 0.0 0.9 0.02 0.77 0.77 92 1011.6
20260502192059 54 0 0.0 0.9 0.03 0.77 0.77 92 1011.7
20260502191605 54 0 0.0 1.7 0.03 0.77 0.77 92 1011.6
20260502191102 54 0 0.0 3.5 0.03 0.77 0.77 92 1011.6
20260502190601 54 34 0.9 3.5 0.03 0.77 0.77 92 1011.5
20260502185558 54 5 1.7 3.5 0.05 0.77 0.77 92 1011.5
20260502185058 54 25 0.9 3.5 0.07 0.77 0.77 92 1011.5
20260502184603 54 11 0.9 3.5 0.08 0.77 0.77 92 1011.6
20260502184058 54 26 0.9 4.3 0.11 0.77 0.77 92 1011.7
20260502183559 54 5 1.7 4.3 0.12 0.76 0.76 91 1011.7
20260502183101 54 5 1.7 4.3 0.14 0.75 0.75 92 1011.8
20260502182559 54 360 1.7 4.3 0.15 0.75 0.75 91 1011.8
20260502182058 54 349 1.7 3.5 0.18 0.74 0.74 91 1011.9
20260502181558 54 349 1.7 3.5 0.19 0.74 0.74 91 1011.9
20260502181058 54 352 1.7 3.5 0.23 0.74 0.74 91 1011.9
20260502180558 54 20 1.7 3.5 0.25 0.73 0.73 91 1012.0
20260502170106 55 0 0.0 2.6 0.18 0.42 0.42 91 1012.4
20260502164100 56 206 0.9 3.5 0.09 0.30 0.30 90 1012.4
20260502163558 56 194 1.7 3.5 0.07 0.27 0.27 89 1012.4
20260502163108 56 200 0.0 4.3 0.07 0.25 0.25 89 1012.4
20260502162558 56 292 0.0 4.3 0.07 0.25 0.25 90 1012.3
20260502162057 56 344 0.9 4.3 0.09 0.24 0.24 90 1012.2
20260502161610 56 342 2.6 4.3 0.11 0.24 0.24 89 1012.3
20260502161057 56 327 1.7 3.5 0.11 0.23 0.23 89 1012.4
20260502160558 56 317 0.9 5.2 0.13 0.23 0.23 89 1012.4
20260502160107 56 348 2.6 5.2 0.14 0.23 0.23 88 1012.5
20260502152100 57 0 0.0 0.9 0.14 0.14 0.14 85 1013.2
20260502151612 57 0 0.0 0.9 0.13 0.13 0.13 84 1013.4
20260502151058 57 0 0.0 1.7 0.11 0.11 0.11 84 1013.5
20260502150558 57 0 0.0 2.6 0.10 0.10 0.10 84 1013.5
20260502130558 63 157 0.9 2.6 0.00 0.00 0.00 67 1014.7
20260502130108 63 223 0.9 3.5 0.00 0.00 0.00 65 1014.7
20260502123558 63 77 1.7 5.2 0.00 0.00 0.00 64 1015.0
20260502123102 63 17 0.9 5.2 0.00 0.00 0.00 62 1015.0
20260502122559 63 124 0.9 2.6 0.00 0.00 0.00 65 1015.0
20260502122058 63 80 0.9 2.6 0.00 0.00 0.00 60 1015.1
20260502121558 63 0 0.0 5.2 0.00 0.00 0.00 60 1015.1
20260502121058 63 107 1.7 6.1 0.00 0.00 0.00 60 1015.3
20260502120558 63 82 0.9 6.1 0.00 0.00 0.00 62 1015.5
20260502120104 63 118 0.9 3.5 0.00 0.00 0.00 63 1015.6
20260502115557 63 0 0.0 3.5 0.00 0.00 0.00 62 1015.5
20260502115057 63 123 1.7 6.1 0.00 0.00 0.00 63 1015.6
20260502114558 63 0 1.7 6.1 0.00 0.00 0.00 66 1015.7
20260502114100 63 182 2.6 6.1 0.00 0.00 0.00 65 1015.7
20260502113558 63 179 2.6 5.2 0.00 0.00 0.00 63 1015.8
20260502113057 64 217 0.9 3.5 0.00 0.00 0.00 61 1015.6
20260502112557 64 338 0.9 3.5 0.00 0.00 0.00 60 1015.7
20260502112058 64 285 0.9 3.5 0.00 0.00 0.00 62 1015.8
20260502111558 64 123 0.9 5.2 0.00 0.00 0.00 61 1015.8
20260502111057 64 131 1.7 6.1 0.00 0.00 0.00 60 1016.0
20260502110558 64 159 1.7 6.1 0.00 0.00 0.00 61 1016.1
20260502105559 64 223 2.6 7.8 0.00 0.00 0.00 63 1016.4
20260502105058 64 157 2.6 7.8 0.00 0.00 0.00 66 1016.4
20260502104600 63 175 4.3 7.8 0.00 0.00 0.00 68 1016.5
20260502104058 63 159 2.6 7.8 0.00 0.00 0.00 66 1016.5
20260502103558 63 160 1.7 10.4 0.00 0.00 0.00 66 1016.6
20260502103105 63 185 2.6 11.3 0.00 0.00 0.00 65 1016.8
20260502102600 63 171 2.6 11.3 0.00 0.00 0.00 68 1016.9
20260502102058 63 186 4.3 8.7 0.00 0.00 0.00 68 1016.9
20260502101616 63 106 3.5 7.8 0.00 0.00 0.00 66 1017.1
20260502101057 63 0 2.6 7.8 0.00 0.00 0.00 67 1017.1
20260502100558 63 0 2.6 7.0 0.00 0.00 0.00 64 1017.1
20260502100105 63 126 3.5 7.0 0.00 0.00 0.00 67 1017.1
20260502091057 62 146 2.6 8.7 0.00 0.00 0.00 70 1017.3
20260502090559 61 175 1.7 7.0 0.00 0.00 0.00 73 1017.2
20260502090115 60 175 2.6 7.0 0.00 0.00 0.00 75 1017.2
20260502071057 55 171 2.6 6.1 0.00 0.00 0.00 82 1018.1
20260502070558 54 126 2.6 7.0 0.00 0.00 0.00 82 1018.0
20260502070111 54 134 2.6 7.0 0.00 0.00 0.00 83 1018.0
20260502065558 54 130 1.7 6.1 0.00 0.00 0.00 83 1017.9
20260502065059 53 175 1.7 5.2 0.00 0.00 0.00 83 1017.9
20260502064613 52 89 1.7 5.2 0.00 0.00 0.00 86 1017.9
20260502064058 52 144 2.6 7.0 0.00 0.00 0.00 87 1018.0
20260502063558 51 143 3.5 7.0 0.00 0.00 0.00 89 1018.1
20260502063101 50 163 1.7 6.1 0.00 0.00 0.00 90 1017.9
20260502062557 49 126 2.6 6.1 0.00 0.00 0.00 91 1018.0
20260502062058 49 153 1.7 4.3 0.00 0.00 0.00 91 1017.9
20260502061558 48 98 0.9 3.5 0.00 0.00 0.00 91 1017.9
20260502061059 48 128 0.0 3.5 0.00 0.00 0.00 91 1018.1
20260502060558 48 157 0.9 6.1 0.00 0.00 0.00 91 1018.1
20260502060058 48 158 0.9 6.1 0.00 0.00 0.00 91 1018.1
20260502055559 48 119 2.6 6.1 0.00 0.00 0.00 91 1018.1
20260502055059 48 172 1.7 5.2 0.00 0.00 0.00 91 1018.2
20260502054603 48 150 2.6 5.2 0.00 0.00 0.00 91 1018.3
20260502054101 48 150 1.7 5.2 0.00 0.00 0.00 92 1018.3
20260502053558 48 173 1.7 4.3 0.00 0.00 0.00 92 1018.3
20260502053058 48 165 0.9 3.5 0.00 0.00 0.00 91 1018.3
20260502052558 47 139 0.9 3.5 0.00 0.00 0.00 91 1018.2
20260502052102 47 150 1.7 3.5 0.00 0.00 0.00 91 1018.2
20260502051600 47 187 1.7 3.5 0.00 0.00 0.00 91 1018.2
20260502051058 48 184 0.9 3.5 0.00 0.00 0.00 92 1018.2
20260502050559 48 167 0.0 3.5 0.00 0.00 0.00 92 1018.2
20260502050059 47 217 0.0 1.7 0.00 0.00 0.00 92 1018.2
20260502045559 47 0 0.0 0.9 0.00 0.00 0.00 92 1018.1
20260502045058 47 0 0.0 0.9 0.00 0.00 0.00 92 1018.1
20260502044559 47 0 0.0 1.7 0.00 0.00 0.00 92 1018.1
20260502044057 47 0 0.0 1.7 0.00 0.00 0.00 93 1018.1
20260502043557 47 57 0.0 1.7 0.00 0.00 0.00 93 1018.1
20260502043056 47 0 0.0 3.5 0.00 0.00 0.00 93 1018.1
20260502042601 47 0 0.0 3.5 0.00 0.00 0.00 93 1018.1
20260502042058 47 150 0.0 2.6 0.00 0.00 0.00 93 1018.1
20260502041605 47 130 0.0 1.7 0.00 0.00 0.00 93 1018.1
20260502041058 46 0 0.0 0.0 0.00 0.00 0.00 93 1018.2
20260502040557 46 0 0.0 0.0 0.00 0.00 0.00 93 1018.2
20260502040058 46 0 0.0 0.0 0.00 0.00 0.00 93 1018.3
20260502035557 46 0 0.0 0.0 0.00 0.00 0.00 93 1018.3
20260502035057 45 0 0.0 0.0 0.00 0.00 0.00 92 1018.3
20260502034558 45 0 0.0 0.0 0.00 0.00 0.00 92 1018.4
20260502034057 45 0 0.0 2.6 0.00 0.00 0.00 92 1018.4
20260502033557 45 0 0.0 2.6 0.00 0.00 0.00 91 1018.5
20260502033117 45 0 0.0 2.6 0.00 0.00 0.00 92 1018.4